User: anonymous   Login
Location: Unspecified
(0.0000°N, 0.0000°E)
Time: 20:48:13
(UTC+00:00)
Language:

PERSEUS M2 - Orbit

View from above orbital plane
View from above orbital plane
View from above satellite
View from above satellite

Ground track
Ground track

The orbit data is extracted from the following two-line orbital elements,

1 40037U 14033AD  18141.22157576  .00000074  00000-0  14670-4 0  9998
2 40037  97.9008  53.0291 0012978 279.4458  80.5290 14.86353540212520
Epoch (UTC): 21 May 2018 05:19:04
Eccentricity: 0.0012978
inclination: 97.9008°
perigee height: 600 km
apogee height: 618 km
right ascension of ascending node: 53.0291°
argument of perigee: 279.4458°
revolutions per day: 14.86353540
mean anomaly at epoch: 80.5290°
orbit number at epoch: 21252

The dashed part of the orbit path shows where the satellite is in the earth's shadow,  

DLR